WA4BPS Weather Reports


Display with metric or nautical units.
time (UTC)temp
F
wind
direction
speed
MPH
gust
MPH
rain 1hr
in
rain 24hr
in
rain mn
in
humidity
%
barometer
mb
20210927181853 75 216 2.0 9.0 0.00 0.00 0.00 58 1017.3
20210927181350 75 264 5.0 9.0 0.00 0.00 0.00 59 1017.3
20210927180903 75 253 2.0 7.0 0.00 0.00 0.00 61 1017.5
20210927180357 75 217 4.0 9.0 0.00 0.00 0.00 59 1017.5
20210927175850 75 270 3.0 9.0 0.00 0.00 0.00 58 1017.5
20210927175347 75 243 2.0 10.0 0.00 0.00 0.00 57 1017.7
20210927174900 75 271 5.0 10.0 0.00 0.00 0.00 58 1017.7
20210927174353 75 291 5.0 10.0 0.00 0.00 0.00 57 1017.7
20210927173905 75 271 4.0 10.0 0.00 0.00 0.00 58 1017.8
20210927173357 75 265 2.0 10.0 0.00 0.00 0.00 59 1017.8
20210927172847 75 113 1.0 10.0 0.00 0.00 0.00 59 1017.8
20210927172359 75 209 5.0 10.0 0.00 0.00 0.00 58 1017.9
20210927171853 75 236 3.0 11.0 0.00 0.00 0.00 58 1017.9
20210927171347 75 233 5.0 11.0 0.00 0.00 0.00 59 1017.9
20210927170901 75 232 4.0 7.0 0.00 0.00 0.00 59 1018.2
20210927170351 74 263 2.0 5.0 0.00 0.00 0.00 59 1018.2
20210927165847 74 193 1.0 10.0 0.00 0.00 0.00 62 1018.2
20210927165400 74 222 2.0 10.0 0.00 0.00 0.00 62 1018.2
20210927164853 74 271 4.0 9.0 0.00 0.00 0.00 60 1018.2
20210927164346 74 260 4.0 7.0 0.00 0.00 0.00 61 1018.2
20210927163859 74 268 1.0 8.0 0.00 0.00 0.00 62 1018.5
20210927163353 73 282 2.0 8.0 0.00 0.00 0.00 61 1018.5
20210927162846 73 271 4.0 8.0 0.00 0.00 0.00 62 1018.5
20210927162400 73 248 3.0 7.0 0.00 0.00 0.00 62 1018.6
20210927161854 73 240 3.0 11.0 0.00 0.00 0.00 64 1018.6
20210927161352 72 212 3.0 11.0 0.00 0.00 0.00 64 1018.6
20210927160905 72 205 5.0 8.0 0.00 0.00 0.00 64 1018.6
20210927160358 72 295 4.0 9.0 0.00 0.00 0.00 63 1018.6
20210927155850 72 234 3.0 9.0 0.00 0.00 0.00 65 1018.6
20210927155403 72 165 1.0 3.0 0.00 0.00 0.00 65 1018.7
20210927154857 72 272 1.0 6.0 0.00 0.00 0.00 66 1018.7
20210927154349 71 260 3.0 6.0 0.00 0.00 0.00 68 1018.7
20210927153902 71 205 2.0 6.0 0.00 0.00 0.00 68 1018.8
20210927153355 70 282 1.0 6.0 0.00 0.00 0.00 67 1018.8
20210927152847 70 265 0.0 6.0 0.00 0.00 0.00 69 1018.8
20210927152401 70 274 4.0 6.0 0.00 0.00 0.00 69 1017.9
20210927151853 69 240 0.0 6.0 0.00 0.00 0.00 70 1017.9
20210927151347 69 213 0.0 7.0 0.00 0.00 0.00 72 1017.9
20210927150901 69 233 3.0 7.0 0.00 0.00 0.00 72 1018.1
20210927150356 68 240 1.0 7.0 0.00 0.00 0.00 73 1018.1
20210927145849 68 253 3.0 7.0 0.00 0.00 0.00 73 1018.1
20210927145359 67 226 1.0 6.0 0.00 0.00 0.00 74 1018.1
20210927144851 67 230 2.0 7.0 0.00 0.00 0.00 75 1018.1
20210927144405 66 239 4.0 10.0 0.00 0.00 0.00 77 1018.1
20210927143857 66 203 5.0 7.0 0.00 0.00 0.00 79 1018.4
20210927143354 66 217 3.0 6.0 0.00 0.00 0.00 78 1018.4
20210927142847 66 229 2.0 6.0 0.00 0.00 0.00 79 1018.4
20210927142359 65 224 2.0 8.0 0.00 0.00 0.00 80 1018.3
20210927141851 65 222 4.0 8.0 0.00 0.00 0.00 82 1018.3
20210927141343 65 222 3.0 7.0 0.00 0.00 0.00 83 1018.3
20210927140859 65 206 2.0 6.0 0.00 0.00 0.00 83 1018.3
20210927140353 64 241 4.0 7.0 0.00 0.00 0.00 84 1018.3
20210927135847 64 241 2.0 8.0 0.00 0.00 0.00 85 1018.3
20210927135400 64 244 4.0 8.0 0.00 0.00 0.00 87 1018.4
20210927134853 64 209 3.0 8.0 0.00 0.00 0.00 87 1018.4
20210927134406 64 223 4.0 8.0 0.00 0.00 0.00 87 1018.4
20210927133858 63 226 2.0 6.0 0.00 0.00 0.00 87 1018.4
20210927133351 63 182 0.0 3.0 0.00 0.00 0.00 88 1018.4
20210927132904 63 165 0.0 6.0 0.00 0.00 0.00 88 1018.4
20210927132357 63 216 1.0 8.0 0.00 0.00 0.00 89 1018.3
20210927131848 62 203 2.0 8.0 0.00 0.00 0.00 89 1018.3
20210927131401 62 203 1.0 7.0 0.00 0.00 0.00 89 1018.3
20210927130854 62 216 1.0 4.0 0.00 0.00 0.00 89 1018.1
20210927130347 62 158 0.0 3.0 0.00 0.00 0.00 89 1018.1
20210927125901 62 160 1.0 2.0 0.00 0.00 0.00 89 1018.1
20210927125356 61 151 1.0 5.0 0.00 0.00 0.00 89 1018.1
20210927124850 61 199 1.0 6.0 0.00 0.00 0.00 89 1018.1
20210927124402 61 209 2.0 6.0 0.00 0.00 0.00 89 1018.1
20210927123855 61 191 2.0 6.0 0.00 0.00 0.00 89 1018.1
20210927123348 61 198 1.0 5.0 0.00 0.00 0.00 88 1018.1
20210927122904 61 206 0.0 6.0 0.00 0.00 0.00 88 1018.1
20210927122356 60 192 1.0 6.0 0.00 0.00 0.00 88 1018.2
20210927121848 60 220 2.0 7.0 0.00 0.00 0.00 88 1018.2
20210927121400 60 202 3.0 7.0 0.00 0.00 0.00 87 1018.2
20210927120853 60 196 3.0 7.0 0.00 0.00 0.00 87 1017.9
20210927120405 60 195 3.0 8.0 0.00 0.00 0.00 86 1017.9
20210927115856 60 192 5.0 8.0 0.00 0.00 0.00 86 1017.9
20210927115347 60 195 5.0 7.0 0.00 0.00 0.00 86 1017.8
20210927114859 60 208 4.0 8.0 0.00 0.00 0.00 86 1017.8
20210927114352 60 208 5.0 8.0 0.00 0.00 0.00 86 1017.8
20210927113904 60 212 4.0 6.0 0.00 0.00 0.00 86 1017.7
20210927113356 60 223 4.0 7.0 0.00 0.00 0.00 86 1017.7
20210927112848 60 208 4.0 7.0 0.00 0.00 0.00 86 1017.7
20210927112400 60 208 5.0 7.0 0.00 0.00 0.00 85 1017.6
20210927111853 60 202 3.0 7.0 0.00 0.00 0.00 85 1017.6
20210927111349 60 227 4.0 7.0 0.00 0.00 0.00 85 1017.6
20210927110902 60 213 4.0 6.0 0.00 0.00 0.00 85 1017.3
20210927110355 60 209 4.0 6.0 0.00 0.00 0.00 85 1017.3
20210927105847 60 217 4.0 8.0 0.00 0.00 0.00 85 1017.3
20210927105359 61 215 2.0 9.0 0.00 0.00 0.00 85 1017.2
20210927104850 61 208 5.0 9.0 0.00 0.00 0.00 85 1017.2
20210927104403 61 230 4.0 7.0 0.00 0.00 0.00 85 1017.2
20210927103855 61 215 4.0 9.0 0.00 0.00 0.00 85 1017.2
20210927103348 61 222 4.0 9.0 0.00 0.00 0.00 84 1017.2
20210927102900 61 227 4.0 8.0 0.00 0.00 0.00 84 1017.2
20210927102351 61 232 5.0 7.0 0.00 0.00 0.00 84 1017.0
20210927101904 61 217 4.0 7.0 0.00 0.00 0.00 83 1017.0
20210927101356 61 230 5.0 8.0 0.00 0.00 0.00 83 1017.0
20210927100849 61 220 4.0 8.0 0.00 0.00 0.00 83 1017.6
20210927100402 61 202 5.0 7.0 0.00 0.00 0.00 83 1017.6
20210927095855 62 213 5.0 10.0 0.00 0.00 0.00 83 1017.6
20210927095347 62 232 4.0 10.0 0.00 0.00 0.00 83 1017.5
20210927094900 62 206 5.0 10.0 0.00 0.00 0.00 83 1017.5
20210927094352 62 210 4.0 7.0 0.00 0.00 0.00 82 1017.5
20210927093904 62 213 4.0 10.0 0.00 0.00 0.00 82 1017.5
20210927093356 62 209 4.0 10.0 0.00 0.00 0.00 82 1017.5
20210927092851 62 213 5.0 11.0 0.00 0.00 0.00 82 1017.5
20210927092404 62 240 7.0 11.0 0.00 0.00 0.00 82 1017.5
20210927091857 62 227 3.0 8.0 0.00 0.00 0.00 82 1017.5
20210927091348 62 236 4.0 8.0 0.00 0.00 0.00 81 1017.5
20210927090900 63 208 4.0 9.0 0.00 0.00 0.00 80 1017.5
20210927090353 63 226 5.0 9.0 0.00 0.00 0.00 80 1017.5
20210927085846 63 210 4.0 11.0 0.00 0.00 0.00 79 1017.5
20210927085358 63 223 6.0 11.0 0.00 0.00 0.00 78 1017.5
20210927084850 63 198 1.0 8.0 0.00 0.00 0.00 77 1017.5
20210927084402 63 198 5.0 8.0 0.00 0.00 0.00 77 1017.5
20210927083852 63 191 2.0 12.0 0.00 0.00 0.00 77 1017.2
20210927083404 64 210 6.0 13.0 0.00 0.00 0.00 77 1017.2
20210927082856 64 186 6.0 13.0 0.00 0.00 0.00 77 1017.2
20210927082349 64 227 6.0 11.0 0.00 0.00 0.00 77 1017.2
20210927081901 64 202 6.0 12.0 0.00 0.00 0.00 77 1017.2
20210927081354 64 224 4.0 12.0 0.00 0.00 0.00 77 1017.2
20210927080846 64 229 5.0 12.0 0.00 0.00 0.00 77 1017.2
20210927080358 64 216 5.0 9.0 0.00 0.00 0.00 77 1017.2
20210927075850 64 200 6.0 10.0 0.00 0.00 0.00 77 1017.2
20210927075344 64 203 7.0 10.0 0.00 0.00 0.00 77 1017.3
20210927074859 64 200 5.0 10.0 0.00 0.00 0.00 77 1017.3
20210927074356 64 186 4.0 10.0 0.00 0.00 0.00 77 1017.3
20210927073848 64 222 7.0 9.0 0.00 0.00 0.00 77 1017.4
20210927073401 64 192 4.0 12.0 0.00 0.00 0.00 77 1017.4
20210927072851 64 182 5.0 12.0 0.00 0.00 0.00 77 1017.4
20210927072403 64 205 5.0 12.0 0.00 0.00 0.00 77 1017.4
20210927071856 64 219 7.0 12.0 0.00 0.00 0.00 76 1017.4
20210927071349 64 192 7.0 11.0 0.00 0.00 0.00 76 1017.4
20210927070902 64 219 5.0 11.0 0.00 0.00 0.00 76 1017.5
20210927070355 64 200 5.0 12.0 0.00 0.00 0.00 76 1017.5
20210927065848 64 206 7.0 12.0 0.00 0.00 0.00 76 1017.5
20210927065400 64 210 5.0 11.0 0.00 0.00 0.00 76 1017.6
20210927064852 64 188 5.0 11.0 0.00 0.00 0.00 76 1017.6
20210927064344 64 216 5.0 9.0 0.00 0.00 0.00 76 1017.6
20210927063859 64 215 5.0 10.0 0.00 0.00 0.00 76 1017.5
20210927063351 64 220 4.0 11.0 0.00 0.00 0.00 76 1017.5
20210927062844 65 210 4.0 11.0 0.00 0.00 0.00 76 1017.5
20210927062359 65 227 7.0 11.0 0.00 0.00 0.00 75 1017.6
20210927061852 65 226 5.0 11.0 0.00 0.00 0.00 75 1017.6
20210927061347 65 212 5.0 10.0 0.00 0.00 0.00 75 1017.6
20210927060900 65 219 6.0 10.0 0.00 0.00 0.00 76 1017.7
20210927060356 65 202 6.0 10.0 0.00 0.00 0.00 75 1017.7
20210927055848 65 189 6.0 9.0 0.00 0.00 0.00 75 1017.7
20210927055402 65 208 5.0 9.0 0.00 0.00 0.00 75 1017.6
20210927054856 65 199 5.0 11.0 0.00 0.00 0.00 75 1017.6
20210927054349 65 193 5.0 11.0 0.00 0.00 0.00 75 1017.6
20210927053902 65 174 5.0 8.0 0.00 0.00 0.00 74 1017.7
20210927053355 65 205 3.0 11.0 0.00 0.00 0.00 74 1017.7
20210927052850 65 191 4.0 11.0 0.00 0.00 0.00 74 1017.7
20210927052403 65 202 4.0 11.0 0.00 0.00 0.00 74 1017.7
20210927051856 65 200 5.0 11.0 0.00 0.00 0.00 74 1017.7
20210927051348 65 191 6.0 12.0 0.00 0.00 0.00 74 1017.7
20210927050901 65 188 6.0 14.0 0.00 0.00 0.00 74 1017.8
20210927050353 65 220 7.0 14.0 0.00 0.00 0.00 74 1017.8
20210927045905 65 208 7.0 13.0 0.00 0.00 0.00 74 1017.8
20210927045358 65 213 7.0 13.0 0.00 0.00 0.00 74 1017.8
20210927044850 65 185 6.0 12.0 0.00 0.00 0.00 74 1017.8
20210927044404 64 189 7.0 12.0 0.00 0.00 0.00 75 1017.8
20210927043855 64 158 7.0 14.0 0.00 0.00 0.00 75 1017.7
20210927043349 64 215 6.0 14.0 0.00 0.00 0.00 75 1017.7
20210927042846 64 215 5.0 12.0 0.00 0.00 0.00 76 1017.7
20210927042400 64 209 6.0 13.0 0.00 0.00 0.00 77 1017.7
20210927041854 64 219 8.0 13.0 0.00 0.00 0.00 78 1017.7
20210927041347 64 216 6.0 13.0 0.00 0.00 0.00 79 1017.7
20210927040900 64 167 5.0 11.0 0.00 0.00 0.00 79 1017.7
20210927040354 64 193 5.0 8.0 0.00 0.00 0.00 80 1017.7
20210927035847 64 174 5.0 8.0 0.00 0.00 0.00 80 1017.7
20210927035401 64 172 3.0 8.0 0.00 0.00 0.00 80 1017.6
20210927034856 64 188 6.0 10.0 0.00 0.00 0.00 80 1017.6
20210927034349 64 219 5.0 10.0 0.00 0.00 0.00 80 1017.6
20210927033901 64 196 4.0 8.0 0.00 0.00 0.00 80 1017.6
20210927033353 64 195 3.0 8.0 0.00 0.00 0.00 80 1017.6
20210927032846 64 210 4.0 8.0 0.00 0.00 0.00 79 1017.6
20210927032400 64 200 4.0 7.0 0.00 0.00 0.00 79 1017.6
20210927031854 64 202 3.0 9.0 0.00 0.00 0.00 79 1017.6
20210927031348 64 186 3.0 9.0 0.00 0.00 0.00 80 1017.6
20210927030900 64 212 5.0 8.0 0.00 0.00 0.00 79 1016.8
20210927030353 64 191 4.0 8.0 0.00 0.00 0.00 79 1016.8
20210927025846 64 188 4.0 8.0 0.00 0.00 0.00 79 1016.8
20210927025400 64 193 4.0 8.0 0.00 0.00 0.00 79 1016.8
20210927024858 64 195 4.0 7.0 0.00 0.00 0.00 78 1016.8
20210927024350 64 138 2.0 7.0 0.00 0.00 0.00 78 1016.8
20210927023903 64 195 2.0 7.0 0.00 0.00 0.00 78 1016.8
20210927023357 64 195 3.0 7.0 0.00 0.00 0.00 78 1016.8
20210927022849 64 189 2.0 7.0 0.00 0.00 0.00 78 1016.8
20210927022404 64 203 3.0 7.0 0.00 0.00 0.00 77 1016.7
20210927021857 64 191 3.0 7.0 0.00 0.00 0.00 78 1016.7
20210927021351 64 193 3.0 7.0 0.00 0.00 0.00 78 1016.7
20210927020843 64 198 2.0 6.0 0.00 0.00 0.00 78 1016.8
20210927020359 64 179 2.0 6.0 0.00 0.00 0.00 78 1016.8
20210927015852 64 202 4.0 6.0 0.00 0.00 0.00 78 1016.8
20210927015348 64 196 2.0 7.0 0.00 0.00 0.00 78 1016.8
20210927014901 64 186 2.0 7.0 0.00 0.00 0.00 78 1016.8
20210927014355 64 203 3.0 7.0 0.00 0.00 0.00 78 1016.8
20210927013849 64 213 5.0 7.0 0.00 0.00 0.00 78 1016.8
20210927013402 64 209 2.0 6.0 0.00 0.00 0.00 78 1016.8
20210927012855 64 209 4.0 6.0 0.00 0.00 0.00 78 1016.8
20210927012348 64 205 3.0 6.0 0.00 0.00 0.00 78 1016.6
20210927011846 64 208 3.0 7.0 0.00 0.00 0.00 78 1016.6
20210927011400 64 206 3.0 7.0 0.00 0.00 0.00 78 1016.6
20210927010852 64 195 3.0 7.0 0.00 0.00 0.00 78 1016.6
20210927010401 64 200 3.0 6.0 0.00 0.00 0.00 78 1016.6
20210927005853 65 196 2.0 7.0 0.00 0.00 0.00 78 1016.6
20210927005346 65 205 4.0 7.0 0.00 0.00 0.00 77 1016.5
20210927004900 65 223 4.0 6.0 0.00 0.00 0.00 77 1016.5
20210927004351 65 206 3.0 6.0 0.00 0.00 0.00 76 1016.5
20210927003845 65 203 4.0 6.0 0.00 0.00 0.00 77 1016.5
20210927003358 65 202 3.0 6.0 0.00 0.00 0.00 76 1016.5
20210927002852 65 209 3.0 7.0 0.00 0.00 0.00 77 1016.5
20210927002403 65 206 2.0 7.0 0.00 0.00 0.00 77 1016.4
20210927001855 65 199 4.0 7.0 0.00 0.00 0.00 77 1016.4
20210927001346 66 181 4.0 7.0 0.00 0.00 0.00 77 1016.4
20210927000858 66 208 4.0 7.0 0.00 0.00 0.00 76 1016.4
20210927000353 66 223 4.0 7.0 0.00 0.00 0.00 77 1016.4
20210926235903 66 215 4.0 7.0 0.00 0.00 0.00 76 1016.4
20210926235355 66 200 4.0 8.0 0.00 0.00 0.00 76 1016.3
20210926234847 67 196 4.0 8.0 0.00 0.00 0.00 76 1016.3
20210926234359 67 222 5.0 8.0 0.00 0.00 0.00 75 1016.3
20210926233852 67 205 4.0 8.0 0.00 0.00 0.00 75 1016.3
20210926233348 68 195 3.0 6.0 0.00 0.00 0.00 74 1016.3
20210926232900 68 198 2.0 5.0 0.00 0.00 0.00 73 1016.3
20210926232351 68 184 0.0 3.0 0.00 0.00 0.00 72 1016.1
20210926231905 68 184 0.0 5.0 0.00 0.00 0.00 72 1016.1
20210926231358 69 210 1.0 5.0 0.00 0.00 0.00 72 1016.1
20210926230851 69 234 2.0 3.0 0.00 0.00 0.00 71 1016.0
20210926230345 69 233 0.0 3.0 0.00 0.00 0.00 70 1016.0
20210926225857 69 239 0.0 3.0 0.00 0.00 0.00 69 1016.0
20210926225353 70 232 1.0 3.0 0.00 0.00 0.00 68 1016.0
20210926224846 70 223 1.0 3.0 0.00 0.00 0.00 67 1016.0
20210926224400 70 215 0.0 3.0 0.00 0.00 0.00 65 1016.0
20210926223851 70 212 0.0 3.0 0.00 0.00 0.00 66 1015.9
20210926223343 71 209 0.0 3.0 0.00 0.00 0.00 65 1015.9
20210926222900 71 210 1.0 3.0 0.00 0.00 0.00 62 1015.9
20210926222352 71 311 1.0 3.0 0.00 0.00 0.00 61 1015.8
20210926221843 71 313 2.0 3.0 0.00 0.00 0.00 61 1015.8
20210926221359 72 312 0.0 4.0 0.00 0.00 0.00 62 1015.8
20210926220850 72 311 1.0 4.0 0.00 0.00 0.00 62 1016.8
20210926220405 72 284 2.0 4.0 0.00 0.00 0.00 61 1016.8
20210926215857 72 280 1.0 4.0 0.00 0.00 0.00 61 1016.8
20210926215358 72 316 2.0 4.0 0.00 0.00 0.00 61 1016.1
20210926214852 72 277 0.0 5.0 0.00 0.00 0.00 60 1016.1
20210926214404 72 291 1.0 5.0 0.00 0.00 0.00 61 1016.1
20210926213858 72 261 1.0 5.0 0.00 0.00 0.00 61 1016.2
20210926213350 72 302 2.0 6.0 0.00 0.00 0.00 60 1016.2
20210926212903 72 244 1.0 11.0 0.00 0.00 0.00 58 1016.2
20210926212355 72 302 6.0 11.0 0.00 0.00 0.00 58 1017.1
20210926211848 72 294 5.0 7.0 0.00 0.00 0.00 60 1017.1
20210926211402 72 312 0.0 5.0 0.00 0.00 0.00 60 1017.1
20210926210854 72 360 1.0 7.0 0.00 0.00 0.00 59 1016.2
20210926210346 72 277 1.0 7.0 0.00 0.00 0.00 59 1016.2
20210926205858 72 342 4.0 8.0 0.00 0.00 0.00 59 1016.2
20210926205351 72 295 5.0 8.0 0.00 0.00 0.00 57 1016.3
20210926204846 72 246 0.0 4.0 0.00 0.00 0.00 59 1016.3
20210926204357 72 240 3.0 4.0 0.00 0.00 0.00 63 1016.3
20210926203849 72 232 2.0 7.0 0.00 0.00 0.00 62 1016.5
20210926203402 72 313 1.0 7.0 0.00 0.00 0.00 63 1016.5
20210926202854 72 282 3.0 7.0 0.00 0.00 0.00 61 1016.5
20210926202346 72 271 3.0 9.0 0.00 0.00 0.00 61 1016.5
20210926201842 73 291 2.0 10.0 0.00 0.00 0.00 61 1016.5
20210926201359 72 287 4.0 10.0 0.00 0.00 0.00 60 1016.5
20210926200851 72 304 4.0 10.0 0.00 0.00 0.00 57 1017.5
20210926200404 72 304 6.0 9.0 0.00 0.00 0.00 59 1017.5
20210926195856 72 246 2.0 6.0 0.00 0.00 0.00 64 1017.5
20210926195350 72 270 3.0 6.0 0.00 0.00 0.00 60 1016.7
20210926194904 72 299 3.0 9.0 0.00 0.00 0.00 61 1016.7
20210926194357 72 280 4.0 9.0 0.00 0.00 0.00 61 1016.7
20210926193849 72 299 1.0 5.0 0.00 0.00 0.00 63 1017.8
20210926193402 72 315 0.0 7.0 0.00 0.00 0.00 64 1017.8
20210926192855 72 322 0.0 7.0 0.00 0.00 0.00 61 1017.8
20210926192346 73 316 3.0 7.0 0.00 0.00 0.00 59 1017.1
20210926191859 73 277 3.0 7.0 0.00 0.00 0.00 61 1017.1
20210926191352 73 335 4.0 7.0 0.00 0.00 0.00 59 1017.1
20210926190905 73 323 2.0 9.0 0.00 0.00 0.00 62 1018.2
20210926190358 73 288 4.0 9.0 0.00 0.00 0.00 63 1018.2
20210926185851 73 271 3.0 8.0 0.00 0.00 0.00 61 1018.2
20210926185403 74 258 2.0 9.0 0.00 0.00 0.00 58 1018.5
20210926184855 74 319 2.0 9.0 0.00 0.00 0.00 65 1018.5
20210926184347 74 244 4.0 9.0 0.00 0.00 0.00 62 1018.5
20210926183843 74 227 4.0 8.0 0.00 0.00 0.00 62 1018.7
20210926183358 73 240 3.0 8.0 0.00 0.00 0.00 63 1018.7
20210926182851 73 195 4.0 8.0 0.00 0.00 0.00 61 1018.7
20210926182403 73 257 5.0 8.0 0.00 0.00 0.00 61 1018.9